SCP
1 1 0 0 0 0 0 0 0 0 0 0 1 1 1 1 1 1 1 1 2 3 3 3 3 2 2 2 2 3 3 4 4 4 3 3 3 3 3 3 2 2 2 1
1 0 0 0 0 0 0 0 0 0 0 1 1 1 1 1 1 1 1 1 2 3 3 3 3 3 3 3 3 3 3 4 4 4 4 3 3 3 3 3 2 2 2 1
0 0 0 0 0 0 0 0 0 0 0 1 1 1 1 1 1 1 1 1 2 3 4 4 4 4 4 4 3 3 4 5 5 5 4 4 4 3 3 3 2 2 2 2
0 0 0 0 0 0 0 0 0 0 0 1 1 1 1 1 2 2 1 2 2 3 4 4 4 4 4 4 4 4 5 6 6 5 4 4 4 4 2 2 2 2 2 2
0 0 0 0 0 0 0 0 0 0 0 1 1 1 1 2 2 2 2 2 2 3 4 5 5 5 5 4 5 5 6 7 7 5 4 5 5 4 3 2 2 2 2 2
0 0 0 0 0 0 0 0 0 0 0 0 0 1 1 1 2 2 2 2 2 3 4 5 5 5 5 5 6 6 7 8 7 6 5 5 5 4 4 3 2 2 3 3
0 0 0 0 0 0 0 0 0 0 0 0 0 1 1 1 1 2 2 2 2 3 4 4 5 6 6 6 6 8 9 8 7 6 5 5 4 4 4 4 3 3 3 4
0 0 0 0 0 0 0 0 0 0 0 0 0 1 1 1 1 2 2 2 3 4 4 3 4 6 6 6 6 7 9 10 9 7 6 6 6 5 5 5 4 4 5 6
0 0 0 0 0 0 0 0 0 0 0 0 0 1 1 1 1 2 2 3 3 4 3 3 4 6 6 6 6 7 8 10 9 8 7 7 7 7 6 6 5 6 7 7
0 0 0 0 0 0 0 0 0 0 0 0 0 1 1 2 2 2 3 3 4 4 3 3 4 5 5 5 5 6 7 8 8 7 7 7 7 7 7 7 8 9 9 9
0 0 0 0 0 0 0 0 0 0 0 0 0 1 1 2 2 2 2 3 4 4 4 3 3 4 4 4 4 5 6 6 6 6 6 7 7 7 8 9 10 10 10 9
0 0 0 0 0 0 0 0 0 0 0 0 0 1 2 2 2 2 2 3 4 5 5 4 4 4 4 4 4 5 6 6 5 6 7 8 8 9 9 11 11 10 9 7
0 0 0 0 0 0 0 0 0 0 0 1 1 1 2 3 3 3 4 4 5 5 5 5 5 5 5 5 5 6 7 7 6 7 8 9 10 11 11 11 10 9 7 6
0 0 0 0 0 0 0 0 0 0 0 0 1 2 3 3 3 4 6 6 6 6 6 7 7 7 7 7 7 8 9 10 10 9 9 11 12 12 11 10 9 7 6 6
0 0 0 0 0 0 0 0 0 0 0 0 1 3 4 3 3 4 5 6 6 6 6 7 8 9 10 10 9 9 10 11 12 11 12 13 13 12 11 9 8 7 6 6
0 0 0 0 0 1 0 0 0 0 0 0 1 3 4 4 3 3 4 4 5 5 5 7 8 10 12 11 10 10 11 12 13 15 16 16 14 12 10 9 8 7 5 5
0 1 0 0 0 0 1 1 0 0 0 1 2 3 4 4 3 3 4 5 6 5 5 7 9 10 11 12 11 12 13 16 17 19 19 17 13 10 9 8 7 6 4 3
1 1 1 0 0 0 1 1 1 1 1 1 2 3 3 4 3 4 6 7 7 7 7 9 11 12 12 13 12 13 17 20 21 20 18 14 10 8 7 7 6 5 3 3
1 1 1 1 0 0 1 1 2 2 2 2 2 2 3 3 3 5 7 8 8 8 9 12 14 14 15 14 13 14 18 20 20 17 13 10 7 6 6 6 5 5 4 3
1 1 1 1 1 1 1 2 2 2 3 5 5 4 4 3 4 6 7 8 9 9 10 12 13 12 14 15 14 14 15 16 14 11 9 7 6 6 5 5 5 5 5 4
1 1 1 1 1 1 1 2 2 3 4 8 8 6 4 5 6 8 8 9 10 10 10 10 9 9 13 16 15 12 12 12 9 7 6 6 6 6 5 6 5 5 5 4
1 1 1 1 1 1 2 2 2 3 5 8 9 7 6 7 8 9 8 8 9 10 11 11 10 11 15 16 13 11 11 10 8 7 7 6 6 6 6 6 6 5 4 4
1 1 1 2 2 3 3 3 3 3 4 5 7 7 7 7 8 8 7 7 8 9 10 13 14 15 16 16 14 12 10 9 9 9 9 8 7 6 6 6 5 5 4 4
1 1 2 3 4 4 4 4 3 3 3 3 4 5 5 6 6 6 6 7 8 9 8 10 11 13 15 16 16 15 12 9 9 10 10 10 9 8 7 7 6 6 6 5
2 3 3 4 4 4 4 3 3 3 3 3 3 3 4 4 4 5 6 6 7 8 8 7 7 9 11 12 14 14 13 11 10 10 11 11 11 10 10 9 8 6 6 6
3 4 5 5 4 3 3 3 3 3 3 3 3 3 3 4 4 5 5 6 6 7 7 7 7 7 8 9 10 11 12 12 11 11 11 12 13 13 12 11 8 6 5 5
Wind_Speed
10 10 9 8 7 7 6 5 2 1 2 2 1 5 9 8 7 8 9 9 9 9 10 10 9 10 10 9 7 6 5 4 3 2 2 2 2 2 2 2 3 3 2 2
10 12 11 8 7 7 7 6 4 3 2 2 1 2 7 9 8 8 8 9 10 10 10 10 10 9 9 9 7 7 6 5 4 3 2 2 1 1 2 2 3 2 2 2
12 9 8 8 8 8 8 6 5 5 3 3 2 3 5 8 9 8 8 9 10 11 11 10 9 9 9 9 9 7 6 6 4 4 3 2 2 1 2 2 2 2 2 2
12 11 9 8 9 8 7 5 7 7 5 4 4 3 5 8 9 9 8 9 9 10 11 11 10 9 8 9 9 7 7 6 5 5 4 4 3 2 2 2 2 2 3 2
12 11 10 10 8 8 7 7 9 8 6 6 5 4 3 6 7 9 8 8 9 10 11 11 11 9 9 8 9 9 7 6 5 5 4 3 3 2 2 2 3 3 3 3
13 11 10 10 9 7 7 9 10 8 7 8 7 6 3 4 7 8 10 10 9 9 10 11 10 9 8 8 8 9 8 7 6 6 5 3 3 2 3 2 2 2 3 3
14 13 11 10 10 8 9 8 6 5 5 6 5 4 2 5 7 6 8 10 9 9 9 10 11 10 8 8 8 8 8 7 7 6 5 4 3 3 3 3 3 2 2 2
11 12 12 10 10 9 9 9 7 7 7 6 5 4 2 6 7 6 5 8 9 10 9 10 11 10 9 9 8 8 8 7 7 6 5 4 3 3 3 3 2 2 1 2
9 9 9 9 10 11 10 9 10 10 11 9 4 3 4 3 7 7 6 6 8 10 10 10 11 11 10 9 8 8 8 7 7 7 6 5 4 3 2 2 2 1 1 1
10 9 9 8 9 11 11 9 7 8 8 7 6 4 2 3 5 6 6 5 6 8 10 10 10 10 10 9 8 8 8 7 7 7 6 5 4 3 2 2 1 0 1 1
10 10 10 9 10 11 10 10 9 8 8 7 6 3 3 5 3 4 6 6 6 7 9 10 10 10 10 10 10 9 8 7 6 7 6 5 5 4 4 2 2 1 1 1
9 10 10 10 9 10 10 9 10 8 7 7 7 4 3 3 2 2 3 5 5 6 7 8 9 10 9 9 9 9 8 8 7 5 5 5 5 4 4 3 2 2 2 1
5 7 9 9 9 9 9 9 10 10 7 7 8 5 4 2 1 2 3 4 4 4 4 5 6 6 6 6 7 8 8 7 7 6 5 5 4 4 3 3 2 2 2 2
5 9 10 11 8 6 8 10 11 10 8 9 10 7 5 3 2 1 2 3 4 4 3 4 5 5 4 4 5 6 7 7 6 6 5 5 4 4 4 3 3 3 3 3
8 10 11 12 12 11 9 11 11 11 11 11 9 6 4 4 4 2 3 2 3 3 3 3 3 4 4 4 4 5 5 5 6 5 5 4 4 4 4 3 3 3 3 3
8 8 10 12 13 14 14 12 12 12 11 11 9 6 2 3 2 1 2 3 3 3 3 3 4 4 4 4 4 4 4 5 5 5 5 5 5 4 4 3 3 2 2 2
8 7 10 11 12 13 14 11 10 9 9 8 8 4 2 3 1 1 1 1 2 3 3 3 4 4 4 4 4 4 4 4 5 5 5 4 5 5 4 4 3 2 2 2
8 7 7 10 11 14 11 8 8 9 7 5 3 3 4 1 2 3 2 1 1 1 2 3 3 4 4 4 4 4 4 5 5 5 5 4 4 4 4 3 3 3 2 2
9 7 8 9 12 12 9 5 6 7 6 2 4 3 1 1 1 3 2 3 2 3 3 2 2 3 4 3 4 4 4 5 5 4 4 4 4 4 3 3 2 2 2 2
10 7 8 10 12 12 6 4 5 7 4 3 4 3 3 1 1 2 4 4 4 3 3 2 2 3 4 4 3 4 4 4 3 3 3 4 4 3 3 3 3 2 2 3
9 9 10 11 12 8 5 5 5 6 2 5 5 4 2 2 2 3 4 5 4 4 3 3 2 2 3 3 3 3 3 3 3 3 3 3 3 3 3 3 3 2 3 3
7 7 8 9 11 6 6 4 3 4 4 5 5 4 4 4 5 5 5 5 4 3 3 2 2 2 3 3 3 2 1 1 1 2 2 3 3 3 4 3 3 3 3 3
4 3 3 3 3 3 5 5 5 5 5 4 4 3 2 3 3 3 4 3 3 3 3 3 2 3 3 2 2 1 1 1 1 2 2 2 3 3 3 4 4 4 4 4
3 2 3 3 3 2 2 2 3 4 4 4 2 1 1 2 2 2 3 2 3 3 3 2 3 2 2 2 2 1 1 1 1 2 2 3 3 4 3 3 4 4 3 3
5 4 4 4 4 4 2 1 2 3 4 3 2 2 2 2 1 2 2 2 1 1 2 2 1 1 1 2 1 1 1 0 1 2 2 3 3 3 3 2 1 2 0 1
5 4 4 4 3 4 3 2 3 3 3 2 2 2 2 1 1 1 1 1 0 0 1 1 1 1 0 1 0 0 1 1 1 2 3 3 3 2 2 2 1 2 1 2
Wind_Direction
227 235 240 243 236 238 257 283 288 246 204 212 136 145 155 163 165 162 161 158 159 158 154 152 153 154 154 152 152 154 154 150 151 147 163 159 163 154 127 121 110 121 133 130
230 236 242 248 251 243 247 263 262 252 236 207 153 191 166 169 177 169 169 165 161 159 153 155 157 155 157 154 157 157 162 161 161 150 155 165 169 153 136 118 121 133 135 138
234 238 236 244 252 259 256 257 260 262 238 211 198 242 195 176 177 170 172 169 167 163 158 158 163 166 162 162 165 167 166 161 163 157 161 149 141 151 133 129 129 141 145 144
244 245 245 240 250 260 264 269 269 266 260 255 247 249 202 182 180 177 176 172 168 164 159 165 168 166 166 165 164 156 159 161 163 167 174 181 169 160 149 144 144 158 151 144
239 239 239 242 246 254 271 275 271 272 269 264 249 251 205 187 184 173 170 170 167 165 164 165 167 166 165 161 161 158 154 162 166 174 171 182 168 167 154 155 159 168 157 154
251 245 238 241 244 249 263 267 269 265 257 254 252 247 220 195 182 174 169 163 163 167 164 161 157 156 160 159 158 157 155 163 171 176 174 182 174 171 161 169 172 186 161 164
242 237 232 234 242 234 244 255 261 254 245 257 268 261 170 152 148 151 156 158 161 160 161 160 157 159 160 158 152 148 154 164 173 176 176 184 184 185 185 197 195 198 179 171
241 235 227 222 234 243 242 250 256 265 263 257 235 239 165 135 125 119 140 158 162 161 161 156 157 158 160 159 153 149 153 164 170 174 174 180 185 198 203 201 209 208 203 161
259 248 233 222 226 238 241 247 263 271 273 274 251 204 164 148 139 146 158 158 159 159 159 161 159 159 161 160 157 158 156 164 169 174 172 175 181 199 205 192 207 205 152 162
263 274 253 234 229 232 245 250 256 257 269 271 274 252 209 180 171 164 158 158 157 164 163 166 162 162 162 163 160 159 158 163 170 174 181 175 177 185 188 200 184 187 131 93
261 265 259 235 227 236 237 245 260 271 271 274 268 269 166 172 191 187 167 161 163 173 169 169 166 164 166 167 163 163 163 163 170 179 177 171 173 184 190 196 191 178 168 172
251 258 262 250 240 244 249 244 250 256 268 274 273 260 144 149 154 134 146 155 158 167 165 169 166 164 170 169 165 166 167 168 173 173 172 175 175 184 190 189 198 175 172 194
276 265 260 254 238 226 247 253 255 257 255 259 262 246 165 147 173 143 136 135 143 152 155 151 147 152 162 161 162 166 170 170 172 169 171 169 173 174 182 182 183 186 192 197
270 259 265 265 269 266 258 263 264 262 257 255 254 240 205 189 204 180 147 131 146 139 139 137 135 142 144 143 152 159 168 167 166 168 173 164 167 163 171 179 183 187 191 194
251 261 265 271 277 274 262 253 253 253 261 265 267 260 230 205 206 190 150 143 151 141 137 127 134 142 146 146 153 157 162 162 164 168 171 163 159 162 166 173 179 188 197 192
254 274 277 272 268 271 269 255 247 247 253 263 270 273 302 270 212 144 151 175 167 161 169 164 148 143 150 156 162 162 163 161 164 173 169 164 166 172 174 178 171 177 188 184
261 259 266 270 273 273 264 259 256 257 259 266 266 255 228 226 197 135 185 202 178 172 170 174 162 161 161 168 164 169 166 159 164 168 165 166 170 171 175 183 170 176 191 187
250 258 256 261 265 259 262 264 259 256 252 268 269 252 249 191 121 68 51 51 14 173 164 164 161 159 165 166 158 165 159 161 167 172 168 164 167 167 168 174 179 185 185 194
246 245 254 258 257 259 260 282 288 279 270 289 279 278 318 51 102 88 45 41 63 82 88 119 139 140 133 137 144 153 161 166 172 176 172 169 174 172 172 178 189 193 197 207
231 224 243 256 262 262 272 293 291 273 241 336 324 335 20 358 243 81 47 50 59 62 68 77 109 125 124 125 133 150 167 171 179 187 184 173 169 171 179 184 186 190 206 215
225 223 234 251 259 266 312 319 300 266 302 350 0 8 16 359 30 72 61 53 62 60 63 66 68 80 107 125 136 148 163 179 185 184 176 171 168 174 179 183 186 194 211 217
246 242 241 248 253 258 353 349 352 0 2 2 5 24 48 59 66 75 74 61 51 52 58 64 70 66 75 102 119 123 138 137 140 159 170 175 178 202 189 181 193 203 213 221
259 277 285 284 279 355 9 21 22 10 357 3 355 24 40 58 68 71 73 66 46 37 35 40 54 73 67 66 83 126 132 120 141 164 184 188 193 207 195 193 205 210 217 227
240 257 271 285 268 291 336 4 3 354 327 324 342 18 46 71 73 72 69 66 49 33 33 42 57 59 65 56 39 43 61 143 161 186 203 204 203 209 207 207 215 219 216 221
296 271 259 261 275 291 293 340 326 321 322 341 356 7 51 77 66 81 78 71 66 34 26 29 54 64 76 80 46 14 21 37 212 214 219 229 225 213 204 205 240 235 210 229
290 287 277 281 288 277 277 282 291 310 321 329 355 359 11 40 99 109 111 82 85 58 31 26 14 13 87 101 75 353 0 316 262 243 238 240 235 214 207 187 167 54 107 141